Location: Monzambano
(45.3833°N, 10.6833°E)
Time: 01:09:26
(UTC+00:00)

Daily predictions for brighter satellites

Satellite Brightness Start Highest point End
(mag) Time Altitude Azimuth Time Altitude Azimuth Time Altitude Azimuth
Cosmos 1980 Rocket 4.0 01:05:32 27° NE 01:05:32 27° NE 01:08:16 10° NE
Cosmos 2263 Rocket 4.0 01:00:16 10° N 01:03:49 27° NNE 01:03:49 27° NNE
Lacrosse 5 4.0 01:22:28 23° NE 01:22:28 23° NE 01:24:29 10° NE
SL-16 R/B 4.2 01:24:46 20° E 01:24:46 20° E 01:28:44 10° NE
Resurs 1-4 Rocket 4.0 01:24:55 10° N 01:26:56 23° N 01:26:56 23° N
SL-16 R/B 4.4 01:35:43 18° NNW 01:35:43 18° NNW 01:37:14 10° NNW
CZ-2D R/B 4.0 01:31:31 10° N 01:33:36 24° N 01:33:36 24° N
USA 267 3.8 01:43:30 10° ENE 01:49:37 47° SE 01:49:37 47° SE
NOSS 3-3 (A) 4.3 01:51:32 60° ENE 01:51:32 60° ENE 01:57:10 10° NE
NOSS 3-3 (C) 4.3 01:51:39 59° ENE 01:51:39 59° ENE 01:57:15 10° NE
ARIANE 5 R/B 3.7 01:46:14 10° NNE 01:50:05 39° ENE 01:50:05 39° ENE
ATLAS 5 CENTAUR R/B 4.4 01:57:35 12° NNW 01:57:39 12° NNW 01:59:28 10° N
Cosmos 1934 Rocket 4.2 01:53:43 10° N 01:58:47 63° N 01:58:47 63° N
Gbstr 26 Del rocket 4.3 02:03:39 72° WNW 02:04:37 86° SSW 02:12:11 10° SE
ATLAS 2AS CENTAUR R/B 4.0 01:58:14 10° NNW 02:05:22 41° NE 02:11:58 10° ESE
Cosmos 2278 4.4 02:10:19 44° NNW 02:10:19 44° NNW 02:14:36 10° NNE
Cosmos 468 Rocket 4.4 02:19:42 55° ESE 02:19:56 55° ESE 02:25:05 10° NNE
ADEOS II 3.1 02:14:53 10° N 02:18:19 37° NNW 02:18:19 37° NNW
SL-4 R/B 3.2 02:21:54 44° E 02:21:54 44° E 02:25:22 10° ENE
IDEFIX/ARIANE 42P 2.8 02:16:52 10° NNE 02:22:09 66° ESE 02:22:24 65° ESE
CZ-2C R/B 4.4 02:20:31 10° NNE 02:23:31 33° E 02:23:31 33° E
USA 234 3.8 02:18:47 10° ESE 02:25:08 56° NNE 02:30:48 13° NW
Cosmos 2228 Rocket 4.0 02:33:13 40° N 02:33:13 40° N 02:36:08 10° N
Cosmos 1238 Rocket 4.1 02:27:48 10° NNW 02:33:16 55° WNW 02:33:16 55° WNW
Cosmos 1605 Rocket 3.9 02:28:00 10° N 02:34:27 86° W 02:37:19 36° S
USA 305 4.5 02:36:27 27° N 02:36:27 27° N 02:39:58 10° NE
Cosmos 2360 Rocket 3.6 02:33:12 17° SSE 02:36:46 33° ESE 02:41:47 10° NE
H-2A R/B 3.2 02:33:01 10° SE 02:37:13 44° ENE 02:41:30 10° N
Cosmos 1697 Rocket 4.2 02:40:57 22° NW 02:40:57 22° NW 02:44:44 10° N
USA 306 4.5 02:40:43 27° N 02:40:46 27° N 02:44:25 10° NE
ATLAS CENTAUR R/B 4.4 02:33:36 10° WNW 02:45:03 40° N 02:49:44 10° ENE
CZ-2C R/B 4.0 02:40:38 10° NNE 02:45:23 36° E 02:50:08 10° SSE
Meteor 1-4 Rocket 4.0 02:46:55 32° NNE 02:46:55 32° NNE 02:48:58 10° NNE
Cosmos 1980 Rocket 3.1 02:47:20 32° NW 02:47:20 32° NW 02:52:07 10° N
Cosmos 2263 Rocket 4.0 02:43:55 10° NW 02:45:20 18° NW 02:45:20 18° NW
ASTEX 1 3.8 02:47:13 10° N 02:51:25 49° NW 02:51:25 49° NW
Cosmos 1844 Rocket 3.8 02:48:11 10° NNW 02:53:34 43° ENE 02:58:57 10° SE
Helios 1B 4.4 02:54:47 52° SSE 02:55:50 90° ENE 03:00:12 10° NNW
Cosmos 2322 Rocket 2.2 02:54:21 45° SSW 02:56:11 85° ESE 03:01:55 10° NNE
Cosmos 1898 Rocket 3.4 02:52:33 10° NNW 02:57:48 70° WSW 03:03:03 10° S
Cosmos 1666 3.1 02:56:08 10° N 02:59:07 53° N 02:59:07 53° N
Spot 4 Rocket 4.0 02:55:01 10° N 03:00:07 66° WNW 03:01:01 55° WSW
X-37B 3.5 03:04:31 10° SE 03:04:31 10° SE 03:04:34 10° SE
Meteor 1-11 Rocket 3.6 02:56:16 10° NNW 03:02:03 86° W 03:07:40 10° S
Lacrosse 5 3.5 03:01:39 20° NW 03:03:23 24° NNW 03:07:30 10° NE
Cosmos 921 Rocket 4.3 03:05:07 27° NNW 03:05:07 27° NNW 03:07:46 10° N
Cosmos 858 Rocket 4.3 02:59:15 10° NNW 03:04:28 85° WSW 03:09:40 10° SSE
Cosmos 1812 3.9 03:08:14 30° NNW 03:08:14 30° NNW 03:10:34 10° N
SL-16 R/B 2.2 03:06:39 45° SW 03:08:16 66° WNW 03:13:57 10° NNE
Meteor 1-27 Rocket 3.8 03:05:04 18° S 03:09:36 87° E 03:15:32 10° NNE
ERBS 4.0 03:12:22 23° NNW 03:12:22 23° NNW 03:14:49 10° NNE
IRIDIUM 104 4.3 03:07:20 10° N 03:12:29 62° W 03:15:23 26° SSW
Cosmos 1727 Rocket 3.9 03:09:26 22° SSW 03:13:43 73° W 03:20:03 10° N
Cosmos 2100 Rocket 4.1 03:08:04 10° N 03:14:30 80° E 03:20:51 10° S
Cosmos 1937 Rocket 3.3 03:12:12 10° NNW 03:17:18 65° WSW 03:22:23 10° S
Cosmos 2237 4.3 03:13:42 21° SSW 03:17:34 76° ESE 03:23:17 10° NNE
Cosmos 1459 Rocket 4.0 03:12:33 10° N 03:18:39 78° E 03:24:41 10° SSE
CZ-4C R/B 3.7 03:20:02 39° NW 03:20:02 39° NW 03:22:29 10° NNW
FALCON 9 DEB 3.6 03:20:10 47° NNW 03:20:18 47° NNW 03:23:39 10° NE
IRIDIUM 114 4.4 03:16:33 10° NNW 03:21:36 51° W 03:24:29 24° SSW
Cosmos 841 Rocket 3.5 03:18:31 23° SSW 03:21:53 87° ESE 03:27:11 10° NNE
Cosmos 1802 Rocket 4.2 03:18:29 10° N 03:24:43 72° E 03:30:59 10° SSE
Cosmos 2219 Rocket 4.0 03:19:56 10° SSE 03:24:46 30° ESE 03:29:38 10° NE
Cosmos 1536 2.7 03:20:55 10° NNW 03:24:59 67° W 03:29:00 10° S
Cosmos 2208 Rocket 4.1 03:22:04 15° SSW 03:26:25 77° ESE 03:31:37 10° NNE
Cosmos 1763 Rocket 3.8 03:25:16 35° WSW 03:26:59 47° WNW 03:32:06 10° N
Cosmos 1814 Rocket 4.1 03:23:39 15° SSW 03:28:03 79° ESE 03:33:21 10° NNE
ARIANE 5 R/B 3.5 03:25:49 10° N 03:29:56 26° WNW 03:30:25 25° WNW
USA 32 4.0 03:24:55 10° NNW 03:30:06 61° W 03:35:15 10° S
USA 267 3.4 03:26:29 10° NE 03:32:56 63° NNW 03:36:57 24° WSW
NOSS 3-4 (A) 3.8 03:25:58 10° NW 03:32:59 69° WSW 03:40:43 10° SSE
NOSS 3-4 (C) 3.8 03:26:04 10° NW 03:33:05 70° WSW 03:40:50 10° SSE
Cosmos 1707 Rocket 3.8 03:32:27 34° SW 03:33:51 46° WNW 03:38:04 10° N
ADEOS Rocket 3.0 03:30:31 10° SSE 03:37:10 88° WSW 03:43:10 10° NNW
CZ-4B R/B 1.8 03:36:55 10° SSE 03:40:03 60° ENE 03:43:19 10° N
ERS-2 2.0 03:37:39 10° S 03:41:17 65° WSW 03:44:57 10° NNW
Cosmos 540 Rocket 3.5 03:38:54 19° SW 03:42:33 64° WNW 03:47:43 10° NNE
MSX 4.3 03:39:41 10° N 03:45:00 39° WNW 03:48:33 19° WSW
COSMOS 2428 4.1 03:42:04 10° S 03:47:18 39° ESE 03:52:36 10° NE
Cosmos 44 Rocket 3.4 03:44:48 24° WSW 03:47:30 57° NW 03:52:20 10° NNE
Cosmos 1733 Rocket 3.1 03:43:57 10° NNW 03:48:10 52° W 03:52:21 10° S
Cosmos 1544 3.6 03:45:59 10° N 03:49:33 61° E 03:53:05 10° SSE
Cosmos 1743 2.6 03:47:04 10° N 03:50:53 84° W 03:54:41 10° S
PAYLOAD A 4.0 03:48:10 10° N 03:52:42 50° WNW 03:57:13 10° SW
Landsat 5 4.4 03:51:03 10° SSW 03:54:58 29° W 03:58:51 10° NW
Cosmos 2333 Rocket 2.9 03:50:36 10° S 03:56:14 58° ESE 04:01:53 10° NNE
Cosmos 2173 Rocket 4.1 03:50:13 10° NNW 03:56:24 55° W 04:02:34 10° SSW
ADEOS 3.7 03:51:14 10° NNE 03:56:29 82° ESE 04:01:42 10° SSW
ATLAS 2AS CENTAUR R/B 2.8 03:49:24 10° NW 03:56:41 59° WSW 04:03:20 10° SSE
CZ-2C R/B 4.2 03:55:27 10° NNW 03:58:15 20° WNW 03:58:54 19° W
BREEZE M DEB (TANK) 4.3 03:48:08 10° WNW 03:58:27 32° WSW 04:02:22 10° S
Cosmos 2242 Rocket 3.8 03:54:47 10° S 03:59:10 74° E 04:03:35 10° NNE
SL-4 R/B 2.9 03:57:30 19° W 04:00:36 48° NNW 04:05:16 10° ENE
Cosmos 2322 3.8 03:55:24 10° SSW 04:01:03 80° ESE 04:06:44 10° NNE
IDEFIX/ARIANE 42P 4.0 03:57:32 10° NNW 04:01:12 20° WNW 04:03:12 16° W
PSLV R/B 4.0 03:58:05 10° N 04:02:00 39° WNW 04:05:44 11° SW
Cosmos 1570 Rocket 4.4 03:58:30 14° SW 04:02:55 45° WNW 04:08:04 10° N
BREEZE-M DEB (TANK) 2.5 03:59:36 16° WSW 04:04:41 82° S 04:07:25 10° E
Meteor 2-20 Rocket 4.4 03:58:34 10° S 04:04:43 87° W 04:10:53 10° N
USA 276 2.1 04:03:18 18° WNW 04:05:31 68° SSW 04:08:43 10° SE
Meteor 2-20 4.4 04:00:26 10° SSW 04:06:30 64° WNW 04:12:34 10° N
USA 234 3.4 04:01:45 10° SSE 04:08:08 56° SW 04:14:34 10° WNW
Cosmos 1862 Rocket 4.0 04:04:36 10° SSW 04:08:44 41° WNW 04:12:52 10° N
BREEZE-M DEB (TANK) 4.0 04:08:00 15° WNW 04:10:48 57° N 04:20:43 10° E
H-2A R/B 3.4 04:10:08 10° SW 04:13:23 20° W 04:16:42 10° NW
SAR-Lupe-4 3.6 04:10:45 10° S 04:14:17 59° WSW 04:17:51 10° NNW
CZ-4C R/B 3.2 04:07:19 10° NW 04:14:33 78° NE 04:22:53 10° SE
ALOS 2.2 04:11:16 10° NNE 04:15:58 82° WNW 04:20:37 10° SSW
Cosmos 1689 Rocket 2.3 04:13:19 10° SSE 04:16:15 73° ENE 04:19:14 10° N
PSLV R/B 4.4 04:12:29 10° SSE 04:16:31 65° ENE 04:20:36 10° N
FENGYUN 3A 3.6 04:12:53 10° NNE 04:18:19 82° WNW 04:23:43 10° SSW
Cosmos 2333 4.2 04:13:30 10° SSW 04:19:17 75° WNW 04:25:05 10° NNE
Cosmos 2360 Rocket 2.7 04:15:18 10° SW 04:20:38 41° NW 04:26:01 10° NNE
USA 306 4.5 04:17:58 10° NW 04:21:43 29° NNE 04:25:28 10° ENE
COSMOS 2455 3.9 04:16:34 10° NNW 04:22:26 49° NE 04:28:15 10° SE
CZ-2C R/B 3.3 04:18:58 10° N 04:23:31 33° WNW 04:28:07 10° SW
Cosmos 1975 2.7 04:20:21 10° N 04:24:22 79° W 04:28:21 10° S
Meteor 1-19 Rocket 4.2 04:21:25 10° SSW 04:26:55 78° WNW 04:32:37 10° N
Meteor 1-18 Rocket 4.2 04:22:08 10° SSW 04:27:40 72° WNW 04:33:16 10° N
Cosmos 2016 Rocket 4.2 04:22:21 10° NNW 04:28:08 46° W 04:33:53 10° SSW
Sich 1 Rocket 4.5 04:27:28 10° N 04:32:00 57° ENE 04:36:29 10° SSE
Cosmos 1484 Rocket 3.1 04:29:21 10° N 04:33:12 46° WNW 04:37:02 10° SW
Cosmos 2061 Rocket 4.4 04:28:56 10° NNW 04:34:57 43° W 04:40:55 10° SSW
ATLAS CENTAUR Rocket 4.4 04:30:09 10° WSW 04:36:26 17° SSW 04:39:49 10° S
Cosmos 1515 4.1 04:33:33 10° SSW 04:37:09 42° WNW 04:40:47 10° N
Cosmos 1844 Rocket 3.4 04:32:22 10° NW 04:37:18 32° WSW 04:42:13 10° SSW
Cosmos 2233 Rocket 3.9 04:31:51 10° NNW 04:37:57 72° W 04:44:04 10° S
Cosmos 2322 Rocket 3.7 04:36:55 10° W 04:40:59 20° NW 04:45:06 10° N
Okean 2 Rocket 4.5 04:37:05 10° N 04:41:20 45° ENE 04:45:32 10° SSE
Cosmos 2278 Rocket 2.8 04:36:54 10° NNW 04:42:33 62° ENE 04:48:08 10° SE
